User: anonymous   Login
Location: Newark
(30.0333°N, 31.2167°E)
Time: 14:16:00
(UTC+00:00)
Language:

Transit 2A - Orbit

View from above orbital plane
View from above orbital plane
View from above satellite
View from above satellite

Ground track
Ground track

The orbit data is extracted from the following two-line orbital elements,

1    45U 60007A   20017.15867707 -.00000086  00000-0  51151-5 0  9996
2    45  66.6950  62.2518 0248782  65.7801 296.9080 14.33662671100874
Epoch (UTC): 17 January 2020 03:48:29
Eccentricity: 0.0248782
inclination: 66.6950°
perigee height: 601 km
apogee height: 957 km
right ascension of ascending node: 62.2518°
argument of perigee: 65.7801°
revolutions per day: 14.33662671
mean anomaly at epoch: 296.9080°
orbit number at epoch: 10087

The dashed part of the orbit path shows where the satellite is in the earth's shadow,  

DLR